Time,TemperatureF,DewpointF,PressureIn,WindDirection,WindDirectionDegrees,WindSpeedMPH,WindSpeedGustMPH,Humidity,HourlyPrecipIn,Conditions,Clouds,dailyrainin,SoftwareType,DateUTC
2013-02-04 00:01:00,44.0,43.0,30.21,South,178,0.0,-999.0,96,-99.99,,,-99.99,,2013-02-04 08:01:00,
2013-02-04 00:11:00,44.0,43.0,30.21,South,178,0.0,-999.0,96,-99.99,,,-99.99,,2013-02-04 08:11:00,
2013-02-04 00:21:00,44.0,43.0,30.21,South,178,0.0,-999.0,96,-99.99,,,-99.99,,2013-02-04 08:21:00,
2013-02-04 00:31:00,44.0,43.0,30.21,South,178,0.0,-999.0,96,-99.99,,,-99.99,,2013-02-04 08:31:00,
2013-02-04 00:41:00,44.0,43.0,30.21,South,178,0.0,-999.0,96,-99.99,,,-99.99,,2013-02-04 08:41:00,
2013-02-04 00:52:00,43.0,42.0,30.20,South,178,0.0,-999.0,97,-99.99,,,-99.99,,2013-02-04 08:52:00,
2013-02-04 01:01:00,43.0,42.0,30.19,SW,224,0.0,-999.0,97,-99.99,,,-99.99,,2013-02-04 09:01:00,
2013-02-04 01:11:00,43.0,42.0,30.19,SW,224,0.0,-999.0,97,-99.99,,,-99.99,,2013-02-04 09:11:00,
2013-02-04 01:21:00,43.0,42.0,30.19,SW,224,0.0,-999.0,97,-99.99,,,-99.99,,2013-02-04 09:21:00,
2013-02-04 01:31:00,43.0,42.0,30.20,South,176,1.0,-999.0,97,-99.99,,,-99.99,,2013-02-04 09:31:00,
2013-02-04 01:41:00,43.0,42.0,30.20,South,176,1.0,-999.0,97,-99.99,,,-99.99,,2013-02-04 09:41:00,
2013-02-04 01:51:00,43.0,42.0,30.20,ESE,121,1.0,-999.0,97,-99.99,,,-99.99,,2013-02-04 09:51:00,
2013-02-04 02:01:00,43.0,42.0,30.20,South,186,1.0,-999.0,97,-99.99,,,-99.99,,2013-02-04 10:01:00,
2013-02-04 02:11:00,43.0,42.0,30.20,South,186,1.0,-999.0,97,-99.99,,,-99.99,,2013-02-04 10:11:00,
2013-02-04 02:21:00,43.0,42.0,30.20,South,169,1.0,-999.0,97,-99.99,,,-99.99,,2013-02-04 10:21:00,
2013-02-04 02:32:00,43.0,42.0,30.19,South,171,1.0,-999.0,97,-99.99,,,-99.99,,2013-02-04 10:32:00,
2013-02-04 02:41:00,43.0,42.0,30.19,South,171,1.0,-999.0,97,-99.99,,,-99.99,,2013-02-04 10:41:00,
2013-02-04 02:51:00,43.0,42.0,30.19,South,180,1.0,-999.0,97,-99.99,,,-99.99,,2013-02-04 10:51:00,
2013-02-04 03:01:00,43.0,42.0,30.19,South,176,1.0,-999.0,97,-99.99,,,-99.99,,2013-02-04 11:01:00,
2013-02-04 03:11:00,43.0,42.0,30.19,South,176,1.0,-999.0,97,-99.99,,,-99.99,,2013-02-04 11:11:00,
2013-02-04 03:22:00,43.0,42.0,30.19,South,176,0.0,-999.0,97,-99.99,,,-99.99,,2013-02-04 11:22:00,
2013-02-04 03:32:00,43.0,42.0,30.19,South,177,1.0,-999.0,97,-99.99,,,-99.99,,2013-02-04 11:32:00,
2013-02-04 03:42:00,43.0,42.0,30.19,South,177,1.0,-999.0,97,-99.99,,,-99.99,,2013-02-04 11:42:00,
2013-02-04 03:52:00,43.0,42.0,30.19,SSE,165,1.0,-999.0,97,-99.99,,,-99.99,,2013-02-04 11:52:00,
2013-02-04 04:02:00,43.0,42.0,30.19,South,183,2.0,-999.0,97,-99.99,,,-99.99,,2013-02-04 12:02:00,
2013-02-04 04:12:00,43.0,42.0,30.19,South,183,2.0,-999.0,97,-99.99,,,-99.99,,2013-02-04 12:12:00,
2013-02-04 04:21:00,43.0,42.0,30.19,SSE,153,1.0,-999.0,97,-99.99,,,-99.99,,2013-02-04 12:21:00,
2013-02-04 04:32:00,43.0,42.0,30.19,SSE,166,1.0,-999.0,97,-99.99,,,-99.99,,2013-02-04 12:32:00,
2013-02-04 04:42:00,43.0,42.0,30.19,SSE,166,1.0,-999.0,97,-99.99,,,-99.99,,2013-02-04 12:42:00,
2013-02-04 04:52:00,43.0,42.0,30.17,South,178,1.0,-999.0,97,-99.99,,,-99.99,,2013-02-04 12:52:00,
2013-02-04 05:02:00,43.0,42.0,30.17,SSW,193,2.0,-999.0,97,-99.99,,,-99.99,,2013-02-04 13:02:00,
2013-02-04 05:11:00,43.0,42.0,30.17,South,173,2.0,-999.0,96,-99.99,,,-99.99,,2013-02-04 13:11:00,
2013-02-04 05:21:00,43.0,42.0,30.17,South,173,2.0,-999.0,96,-99.99,,,-99.99,,2013-02-04 13:21:00,
2013-02-04 05:32:00,43.0,42.0,30.17,SSW,200,2.0,-999.0,96,-99.99,,,-99.99,,2013-02-04 13:32:00,
2013-02-04 05:41:00,43.0,42.0,30.17,SSW,200,2.0,-999.0,96,-99.99,,,-99.99,,2013-02-04 13:41:00,
2013-02-04 05:51:00,43.0,42.0,30.17,South,188,2.0,-999.0,96,-99.99,,,-99.99,,2013-02-04 13:51:00,
2013-02-04 06:02:00,43.0,42.0,30.16,South,173,1.0,-999.0,96,-99.99,,,-99.99,,2013-02-04 14:02:00,
2013-02-04 06:11:00,43.0,42.0,30.16,South,173,1.0,-999.0,96,-99.99,,,-99.99,,2013-02-04 14:11:00,
2013-02-04 06:21:00,43.0,42.0,30.17,South,172,1.0,-999.0,96,-99.99,,,-99.99,,2013-02-04 14:21:00,
2013-02-04 06:32:00,43.0,42.0,30.17,SSW,194,1.0,-999.0,96,-99.99,,,-99.99,,2013-02-04 14:32:00,
2013-02-04 06:42:00,43.0,42.0,30.17,SSW,194,1.0,-999.0,96,-99.99,,,-99.99,,2013-02-04 14:42:00,
2013-02-04 06:52:00,43.0,42.0,30.16,SSW,194,1.0,-999.0,96,-99.99,,,-99.99,,2013-02-04 14:52:00,
2013-02-04 07:03:00,43.0,42.0,30.16,SSW,200,0.0,-999.0,96,-99.99,,,-99.99,,2013-02-04 15:03:00,
2013-02-04 07:12:00,43.0,42.0,30.16,SSW,200,0.0,-999.0,96,-99.99,,,-99.99,,2013-02-04 15:12:00,
2013-02-04 07:22:00,43.0,42.0,30.15,South,177,1.0,-999.0,96,-99.99,,,-99.99,,2013-02-04 15:22:00,
2013-02-04 07:33:00,43.0,42.0,30.15,South,182,0.0,-999.0,96,-99.99,,,-99.99,,2013-02-04 15:33:00,
2013-02-04 07:43:00,43.0,42.0,30.15,South,182,0.0,-999.0,96,-99.99,,,-99.99,,2013-02-04 15:43:00,
2013-02-04 07:52:00,43.0,42.0,30.16,SSW,196,1.0,-999.0,96,-99.99,,,-99.99,,2013-02-04 15:52:00,
2013-02-04 08:02:00,43.0,42.0,30.17,SSW,196,0.0,-999.0,96,-99.99,,,-99.99,,2013-02-04 16:02:00,
2013-02-04 08:11:00,43.0,42.0,30.17,SSW,196,0.0,-999.0,96,-99.99,,,-99.99,,2013-02-04 16:11:00,
2013-02-04 08:21:00,43.0,42.0,30.16,SSW,196,0.0,-999.0,96,-99.99,,,-99.99,,2013-02-04 16:21:00,
2013-02-04 08:32:00,43.0,42.0,30.16,SSW,195,0.0,-999.0,96,-99.99,,,-99.99,,2013-02-04 16:32:00,
2013-02-04 08:42:00,43.0,42.0,30.16,SSW,195,0.0,-999.0,96,-99.99,,,-99.99,,2013-02-04 16:42:00,
2013-02-04 08:51:00,43.0,42.0,30.17,SSW,195,0.0,-999.0,96,-99.99,,,-99.99,,2013-02-04 16:51:00,
2013-02-04 09:02:00,43.0,42.0,30.17,SSW,196,0.0,-999.0,96,-99.99,,,-99.99,,2013-02-04 17:02:00,
2013-02-04 09:11:00,43.0,42.0,30.17,SSW,196,0.0,-999.0,96,-99.99,,,-99.99,,2013-02-04 17:11:00,
2013-02-04 09:21:00,43.0,42.0,30.16,SSW,202,1.0,-999.0,96,-99.99,,,-99.99,,2013-02-04 17:21:00,
2013-02-04 09:31:00,43.0,42.0,30.16,SSW,202,1.0,-999.0,96,-99.99,,,-99.99,,2013-02-04 17:31:00,
2013-02-04 09:42:00,43.0,42.0,30.16,SSW,202,1.0,-999.0,96,-99.99,,,-99.99,,2013-02-04 17:42:00,
2013-02-04 09:51:00,44.0,43.0,30.15,SE,128,1.0,-999.0,96,-99.99,,,-99.99,,2013-02-04 17:51:00,
2013-02-04 10:03:00,44.0,43.0,30.16,South,170,1.0,-999.0,96,-99.99,,,-99.99,,2013-02-04 18:03:00,
2013-02-04 10:11:00,44.0,43.0,30.16,South,170,1.0,-999.0,96,-99.99,,,-99.99,,2013-02-04 18:11:00,
2013-02-04 10:21:00,45.0,44.0,30.16,SSW,203,1.0,-999.0,95,-99.99,,,-99.99,,2013-02-04 18:21:00,
2013-02-04 10:31:00,45.0,44.0,30.16,SSW,210,1.0,-999.0,95,-99.99,,,-99.99,,2013-02-04 18:31:00,
2013-02-04 10:41:00,45.0,44.0,30.16,SSW,210,1.0,-999.0,95,-99.99,,,-99.99,,2013-02-04 18:41:00,
2013-02-04 10:52:00,45.0,44.0,30.16,SSW,210,1.0,-999.0,95,-99.99,,,-99.99,,2013-02-04 18:52:00,
2013-02-04 11:01:00,45.0,43.0,30.16,SSE,164,1.0,-999.0,94,-99.99,,,-99.99,,2013-02-04 19:01:00,
2013-02-04 11:11:00,45.0,43.0,30.16,SSE,164,1.0,-999.0,94,-99.99,,,-99.99,,2013-02-04 19:11:00,
2013-02-04 11:22:00,45.0,43.0,30.17,South,184,0.0,-999.0,93,-99.99,,,-99.99,,2013-02-04 19:22:00,
2013-02-04 11:31:00,46.0,44.0,30.16,SSE,159,0.0,-999.0,93,-99.99,,,-99.99,,2013-02-04 19:31:00,
2013-02-04 11:41:00,46.0,44.0,30.16,SSE,159,0.0,-999.0,93,-99.99,,,-99.99,,2013-02-04 19:41:00,
2013-02-04 11:51:00,46.0,44.0,30.16,South,183,1.0,-999.0,93,-99.99,,,-99.99,,2013-02-04 19:51:00,
2013-02-04 12:01:00,47.0,45.0,30.15,SSW,205,1.0,-999.0,92,-99.99,,,-99.99,,2013-02-04 20:01:00,
2013-02-04 12:11:00,47.0,45.0,30.15,SSW,205,1.0,-999.0,92,-99.99,,,-99.99,,2013-02-04 20:11:00,
2013-02-04 12:21:00,47.0,45.0,30.14,SSE,157,0.0,-999.0,91,-99.99,,,-99.99,,2013-02-04 20:21:00,
2013-02-04 12:32:00,48.0,45.0,30.14,SSE,157,0.0,-999.0,91,-99.99,,,-99.99,,2013-02-04 20:32:00,
2013-02-04 12:42:00,48.0,45.0,30.14,SSE,157,0.0,-999.0,91,-99.99,,,-99.99,,2013-02-04 20:42:00,
2013-02-04 12:52:00,48.0,45.0,30.13,SSE,159,1.0,-999.0,89,-99.99,,,-99.99,,2013-02-04 20:52:00,
2013-02-04 13:01:00,48.0,44.0,30.11,South,191,2.0,-999.0,87,-99.99,,,-99.99,,2013-02-04 21:01:00,
2013-02-04 13:11:00,48.0,44.0,30.11,South,191,2.0,-999.0,87,-99.99,,,-99.99,,2013-02-04 21:11:00,
2013-02-04 13:22:00,48.0,44.0,30.11,SSW,197,2.0,-999.0,87,-99.99,,,-99.99,,2013-02-04 21:22:00,
2013-02-04 13:31:00,49.0,45.0,30.10,SW,215,1.0,-999.0,85,-99.99,,,-99.99,,2013-02-04 21:31:00,
2013-02-04 13:42:00,49.0,45.0,30.10,SW,215,1.0,-999.0,85,-99.99,,,-99.99,,2013-02-04 21:42:00,
2013-02-04 13:51:00,49.0,45.0,30.09,SW,214,0.0,-999.0,85,-99.99,,,-99.99,,2013-02-04 21:51:00,
2013-02-04 14:02:00,49.0,44.0,30.08,South,188,1.0,-999.0,83,-99.99,,,-99.99,,2013-02-04 22:02:00,
2013-02-04 14:12:00,49.0,44.0,30.08,South,188,1.0,-999.0,83,-99.99,,,-99.99,,2013-02-04 22:12:00,
2013-02-04 14:21:00,49.0,44.0,30.07,NNW,344,1.0,-999.0,82,-99.99,,,-99.99,,2013-02-04 22:21:00,
2013-02-04 14:32:00,49.0,44.0,30.07,NNW,330,1.0,-999.0,82,-99.99,,,-99.99,,2013-02-04 22:32:00,
2013-02-04 14:41:00,49.0,44.0,30.07,NNW,330,1.0,-999.0,82,-99.99,,,-99.99,,2013-02-04 22:41:00,
2013-02-04 14:51:00,48.0,42.0,30.05,NNW,331,1.0,-999.0,81,-99.99,,,-99.99,,2013-02-04 22:51:00,
2013-02-04 15:01:00,48.0,43.0,30.04,NNW,331,0.0,-999.0,82,-99.99,,,-99.99,,2013-02-04 23:01:00,
2013-02-04 15:11:00,48.0,43.0,30.04,NNW,331,0.0,-999.0,82,-99.99,,,-99.99,,2013-02-04 23:11:00,
2013-02-04 15:21:00,49.0,44.0,30.03,NW,313,0.0,-999.0,83,-99.99,,,-99.99,,2013-02-04 23:21:00,
2013-02-04 15:32:00,49.0,44.0,30.03,NW,313,0.0,-999.0,82,-99.99,,,-99.99,,2013-02-04 23:32:00,
2013-02-04 15:41:00,49.0,44.0,30.03,NW,313,0.0,-999.0,82,-99.99,,,-99.99,,2013-02-04 23:41:00,
2013-02-04 15:52:00,49.0,44.0,30.03,West,261,0.0,-999.0,83,-99.99,,,-99.99,,2013-02-04 23:52:00,
2013-02-04 16:01:00,49.0,44.0,30.01,West,261,0.0,-999.0,82,-99.99,,,-99.99,,2013-02-05 00:01:00,
2013-02-04 16:11:00,49.0,44.0,30.01,West,261,0.0,-999.0,82,-99.99,,,-99.99,,2013-02-05 00:11:00,
2013-02-04 16:21:00,49.0,44.0,30.01,West,261,0.0,-999.0,84,-99.99,,,-99.99,,2013-02-05 00:21:00,
2013-02-04 16:31:00,49.0,45.0,30.01,West,261,0.0,-999.0,85,-99.99,,,-99.99,,2013-02-05 00:31:00,
2013-02-04 16:41:00,49.0,45.0,30.01,West,261,0.0,-999.0,85,-99.99,,,-99.99,,2013-02-05 00:41:00,
2013-02-04 16:51:00,48.0,44.0,30.01,West,261,0.0,-999.0,86,-99.99,,,-99.99,,2013-02-05 00:51:00,
2013-02-04 17:01:00,48.0,44.0,30.01,West,261,0.0,-999.0,86,-99.99,,,-99.99,,2013-02-05 01:01:00,
2013-02-04 17:11:00,48.0,44.0,30.01,West,261,0.0,-999.0,86,-99.99,,,-99.99,,2013-02-05 01:11:00,
2013-02-04 17:21:00,48.0,44.0,30.01,West,261,0.0,-999.0,86,-99.99,,,-99.99,,2013-02-05 01:21:00,
2013-02-04 17:32:00,47.0,43.0,30.01,West,261,0.0,-999.0,87,-99.99,,,-99.99,,2013-02-05 01:32:00,
2013-02-04 17:42:00,47.0,43.0,30.01,West,261,0.0,-999.0,87,-99.99,,,-99.99,,2013-02-05 01:42:00,
2013-02-04 17:51:00,47.0,44.0,30.01,West,261,0.0,-999.0,89,-99.99,,,-99.99,,2013-02-05 01:51:00,
2013-02-04 18:01:00,47.0,44.0,30.01,West,261,0.0,-999.0,89,-99.99,,,-99.99,,2013-02-05 02:01:00,
2013-02-04 18:11:00,47.0,44.0,30.01,West,261,0.0,-999.0,89,-99.99,,,-99.99,,2013-02-05 02:11:00,
2013-02-04 18:21:00,47.0,44.0,30.01,West,261,0.0,-999.0,89,-99.99,,,-99.99,,2013-02-05 02:21:00,
2013-02-04 18:31:00,46.0,44.0,30.00,West,261,0.0,-999.0,91,-99.99,,,-99.99,,2013-02-05 02:31:00,
2013-02-04 18:42:00,46.0,44.0,30.00,West,261,0.0,-999.0,91,-99.99,,,-99.99,,2013-02-05 02:42:00,
2013-02-04 18:52:00,46.0,43.0,30.00,SW,217,1.0,-999.0,90,-99.99,,,-99.99,,2013-02-05 02:52:00,
2013-02-04 19:01:00,46.0,43.0,29.99,SW,217,0.0,-999.0,90,-99.99,,,-99.99,,2013-02-05 03:01:00,
2013-02-04 19:11:00,46.0,43.0,29.99,SW,217,0.0,-999.0,90,-99.99,,,-99.99,,2013-02-05 03:11:00,
2013-02-04 19:21:00,46.0,43.0,29.97,SW,217,0.0,-999.0,90,-99.99,,,-99.99,,2013-02-05 03:21:00,
2013-02-04 19:31:00,46.0,44.0,29.95,SW,217,0.0,-999.0,91,-99.99,,,-99.99,,2013-02-05 03:31:00,
2013-02-04 19:41:00,46.0,44.0,29.95,SW,217,0.0,-999.0,91,-99.99,,,-99.99,,2013-02-05 03:41:00,
2013-02-04 19:51:00,46.0,44.0,29.94,SW,217,0.0,-999.0,91,-99.99,,,-99.99,,2013-02-05 03:51:00,
2013-02-04 20:01:00,46.0,44.0,29.93,SW,217,0.0,-999.0,92,-99.99,,,-99.99,,2013-02-05 04:01:00,
2013-02-04 20:11:00,46.0,44.0,29.93,SW,217,0.0,-999.0,92,-99.99,,,-99.99,,2013-02-05 04:11:00,
2013-02-04 20:21:00,46.0,44.0,29.92,SW,217,0.0,-999.0,92,-99.99,,,-99.99,,2013-02-05 04:21:00,
2013-02-04 20:31:00,46.0,44.0,29.91,SW,217,0.0,-999.0,93,-99.99,,,-99.99,,2013-02-05 04:31:00,
2013-02-04 20:41:00,46.0,44.0,29.91,SW,217,0.0,-999.0,93,-99.99,,,-99.99,,2013-02-05 04:41:00,
2013-02-04 20:52:00,45.0,43.0,29.90,SW,217,0.0,-999.0,93,-99.99,,,-99.99,,2013-02-05 04:52:00,
2013-02-04 21:02:00,45.0,43.0,29.89,SW,217,0.0,-999.0,94,-99.99,,,-99.99,,2013-02-05 05:02:00,
2013-02-04 21:11:00,45.0,43.0,29.89,SW,217,0.0,-999.0,94,-99.99,,,-99.99,,2013-02-05 05:11:00,
2013-02-04 21:21:00,45.0,43.0,29.89,SW,217,0.0,-999.0,94,-99.99,,,-99.99,,2013-02-05 05:21:00,
2013-02-04 21:31:00,45.0,44.0,29.90,SW,217,0.0,-999.0,95,-99.99,,,-99.99,,2013-02-05 05:31:00,
2013-02-04 21:41:00,45.0,44.0,29.90,SW,217,0.0,-999.0,95,-99.99,,,-99.99,,2013-02-05 05:41:00,
2013-02-04 21:52:00,45.0,44.0,29.90,SW,217,0.0,-999.0,95,-99.99,,,-99.99,,2013-02-05 05:52:00,
2013-02-04 22:01:00,45.0,44.0,29.90,SW,217,0.0,-999.0,95,-99.99,,,-99.99,,2013-02-05 06:01:00,
2013-02-04 22:11:00,45.0,44.0,29.90,SW,217,0.0,-999.0,95,-99.99,,,-99.99,,2013-02-05 06:11:00,
2013-02-04 22:21:00,45.0,44.0,29.90,NNW,337,0.0,-999.0,95,-99.99,,,-99.99,,2013-02-05 06:21:00,
2013-02-04 22:31:00,45.0,44.0,29.90,NNE,15,0.0,-999.0,95,-99.99,,,-99.99,,2013-02-05 06:31:00,
2013-02-04 22:41:00,45.0,44.0,29.90,NNE,15,0.0,-999.0,95,-99.99,,,-99.99,,2013-02-05 06:41:00,
2013-02-04 22:51:00,45.0,44.0,29.89,NNE,15,0.0,-999.0,95,-99.99,,,-99.99,,2013-02-05 06:51:00,
2013-02-04 23:01:00,45.0,44.0,29.89,NNE,15,0.0,-999.0,96,-99.99,,,-99.99,,2013-02-05 07:01:00,
2013-02-04 23:11:00,45.0,44.0,29.89,NNE,15,0.0,-999.0,96,-99.99,,,-99.99,,2013-02-05 07:11:00,
2013-02-04 23:22:00,44.0,43.0,29.89,NNE,15,0.0,-999.0,95,-99.99,,,-99.99,,2013-02-05 07:22:00,
2013-02-04 23:31:00,44.0,43.0,29.89,NNE,15,0.0,-999.0,95,-99.99,,,-99.99,,2013-02-05 07:31:00,
2013-02-04 23:41:00,44.0,43.0,29.89,NNE,15,0.0,-999.0,95,-99.99,,,-99.99,,2013-02-05 07:41:00,
2013-02-04 23:51:00,44.0,43.0,29.89,NNE,14,0.0,-999.0,95,-99.99,,,-99.99,,2013-02-05 07:51:00,